Lapse_Rate
1.7 1.1 1.7 -1.4 -2.3 -1.7 -1.1 -0.5 0.1 0.5 0.9 1.2 2.0 4.4 4.8 4.5 4.9 4.4 4.8 4.8 4.2 3.7 3.6 3.4 3.5 4.7 4.2 4.4 4.3 4.0 4.7 4.5
-0.2 -1.6 -0.6 -2.4 -2.5 -1.7 -1.1 -0.4 1.1 1.6 1.9 2.1 2.6 4.9 4.0 4.4 4.9 4.8 4.9 4.8 4.4 4.0 3.5 3.2 4.2 5.4 4.5 4.3 4.8 4.6 3.6 4.9
0.6 -1.9 -1.2 -3.0 -3.2 -1.7 -0.8 0.2 1.4 1.3 2.6 2.2 1.2 2.8 4.0 3.9 3.9 3.8 4.9 4.9 4.4 4.5 4.1 3.6 5.0 5.4 4.3 3.9 5.5 3.7 3.9 5.1
0.0 -0.9 -0.2 -2.5 -2.0 -1.9 -0.7 1.0 1.4 1.5 1.7 1.1 1.8 3.7 3.5 3.4 3.1 3.5 4.2 4.9 4.3 4.4 4.2 4.2 4.9 5.4 4.8 4.6 5.4 5.9 5.7 4.1
1.1 0.2 0.6 -1.6 -2.1 -1.3 -0.3 1.0 1.1 1.5 1.5 1.8 2.0 3.0 3.4 3.6 3.8 3.0 3.1 4.1 4.5 4.2 4.1 4.7 5.7 5.2 4.5 5.0 5.6 5.5 6.0 5.6
1.5 1.0 -0.3 -0.7 -1.1 -1.1 -0.2 1.0 1.3 1.2 1.5 1.8 2.4 3.7 4.8 3.7 3.7 3.6 3.5 3.6 4.5 4.5 4.1 3.9 4.9 5.8 6.0 5.1 4.4 4.0 5.4 4.2
2.4 1.6 1.4 1.1 2.1 0.3 0.8 1.6 1.6 2.1 1.5 1.9 3.3 3.7 3.7 4.1 4.2 4.1 3.8 3.4 4.0 4.4 3.9 3.6 4.9 6.4 5.7 4.4 3.5 3.8 3.1 3.6
2.2 2.2 0.7 1.6 1.0 1.5 1.3 1.5 1.7 2.0 1.6 2.2 3.3 4.0 4.1 4.3 4.2 4.8 4.5 4.0 3.8 3.6 4.3 4.3 4.5 5.5 5.3 5.1 4.5 4.4 4.0 3.8
3.4 1.5 0.3 1.8 2.0 1.3 1.5 1.4 1.6 2.0 1.9 2.5 4.6 4.2 5.0 4.7 5.1 5.3 5.2 5.0 4.2 3.6 3.7 4.2 4.5 4.8 5.1 4.8 5.2 5.0 4.7 4.8
5.0 2.0 0.1 1.7 1.6 0.5 0.6 1.3 2.0 2.2 2.2 2.1 3.0 3.5 4.1 4.1 4.6 5.1 5.2 4.9 4.6 4.3 4.8 5.1 5.9 5.3 5.0 4.6 4.2 5.2 5.2 4.9
5.7 4.7 2.6 1.9 1.1 0.8 1.4 1.4 1.7 2.1 2.6 1.9 2.8 3.1 3.1 3.3 4.6 5.0 4.8 5.0 4.6 4.0 4.4 5.1 5.2 4.6 4.6 4.3 5.1 5.3 5.0 4.8
6.1 6.4 5.7 5.4 3.1 1.1 1.1 1.5 2.2 2.8 3.1 2.4 3.0 3.1 3.0 3.2 3.6 4.2 4.2 4.5 4.5 4.4 4.6 4.8 4.3 4.3 4.9 5.2 5.7 5.8 5.1 4.6
5.4 5.8 5.2 5.6 4.8 2.5 1.1 1.5 2.7 3.4 3.4 2.9 3.2 3.3 3.3 3.6 3.6 4.1 4.3 4.1 4.0 4.9 5.2 5.2 5.2 4.8 4.9 5.3 5.8 6.4 5.1 4.2
6.7 4.9 5.2 3.4 4.3 4.2 1.6 1.5 2.7 3.3 3.9 3.2 3.6 3.7 3.6 3.5 3.6 3.9 4.7 4.5 4.6 4.4 5.2 5.5 5.5 5.4 5.3 5.7 6.0 6.1 5.5 5.0
5.1 4.8 5.5 4.4 3.3 3.8 3.0 1.6 2.0 3.2 3.9 3.8 3.5 3.9 4.3 4.0 4.2 4.5 4.5 4.8 4.3 4.8 5.3 5.3 4.9 5.0 5.5 5.8 6.0 5.8 5.6 5.4
6.9 5.6 5.6 5.5 4.5 4.4 5.0 4.7 3.5 3.7 4.2 4.1 4.3 3.9 4.7 5.0 4.9 5.1 5.0 5.1 5.3 4.6 5.2 5.0 4.9 5.1 5.0 4.9 5.4 5.1 4.4 4.2
7.0 6.1 3.8 5.6 5.2 4.2 4.6 4.6 4.0 3.4 4.2 4.3 5.0 5.0 5.4 5.5 5.3 5.5 5.4 5.0 5.3 5.2 5.2 5.0 4.6 5.3 3.3 1.4 3.7 4.5 3.8 3.9
4.9 5.2 4.8 3.3 3.2 4.1 5.0 4.6 4.3 4.1 4.2 4.1 4.5 4.8 5.4 7.0 6.4 6.3 5.9 5.6 5.5 5.3 5.4 5.2 5.0 4.8 1.5 0.5 0.2 4.8 4.3 4.1
5.4 4.0 2.6 2.5 3.0 2.0 2.0 4.1 5.1 4.1 4.7 5.3 5.1 5.0 4.8 5.4 6.7 6.5 6.2 6.1 5.6 5.5 5.2 4.7 4.7 4.4 0.9 0.3 -0.2 2.7 3.3 1.5
Wind_Speed
7 14 17 16 15 15 15 11 10 8 6 5 3 3 3 3 6 7 13 13 17 9 7 8 11 8 7 8 11 5 9 9
6 8 11 13 14 15 15 14 13 10 8 8 6 5 2 3 4 8 13 12 18 11 8 8 7 10 12 10 9 11 4 8
4 8 12 16 18 16 14 14 16 12 9 7 3 3 2 2 2 4 11 12 18 13 11 11 12 9 10 13 12 5 3 9
8 10 13 13 17 18 16 17 16 13 8 5 4 4 3 2 2 2 3 12 14 13 13 12 14 11 9 12 11 11 9 2
11 14 13 18 17 14 15 17 15 13 11 8 12 6 3 2 2 2 2 4 12 16 15 15 15 9 12 11 9 7 12 9
13 17 19 15 16 15 16 16 14 11 11 8 7 7 5 4 3 4 4 3 5 14 15 15 16 10 10 12 9 7 8 5
13 17 13 13 12 13 16 16 13 11 11 8 9 10 8 6 5 4 4 3 3 7 13 16 14 9 11 9 8 8 6 5
10 15 16 17 19 17 16 15 14 13 13 9 9 10 11 10 9 5 6 4 3 6 12 13 13 12 12 10 10 6 6 5
16 20 19 20 22 20 19 16 15 14 14 11 10 10 7 7 9 6 5 5 6 8 8 12 15 12 12 9 7 5 5 4
14 18 20 21 22 21 19 18 15 14 16 10 9 10 10 9 8 6 4 5 6 8 12 12 14 13 9 6 3 4 6 5
3 12 17 18 18 16 16 18 17 15 15 11 10 11 10 9 10 9 7 7 8 6 8 12 14 13 14 12 10 5 6 4
2 8 10 11 13 16 16 17 17 15 15 12 12 11 11 10 10 9 9 8 9 11 10 9 11 13 13 13 13 9 7 7
13 10 13 11 11 14 16 16 15 16 15 13 12 12 12 11 10 10 11 11 9 12 11 12 13 12 12 13 15 15 9 7
15 10 13 15 13 12 14 15 17 16 16 14 12 12 13 13 11 11 10 11 12 11 12 12 12 13 14 15 16 15 13 13
22 5 10 11 13 12 12 14 14 15 16 16 13 13 13 13 13 12 12 12 11 11 13 13 13 12 13 13 14 15 14 13
20 13 6 6 8 8 6 5 9 11 14 15 16 12 12 11 12 13 13 12 12 12 12 12 13 13 10 13 13 12 10 9
17 16 15 9 6 7 8 8 9 10 10 10 10 10 11 11 12 12 12 13 13 12 13 13 12 11 14 17 14 11 9 10
13 13 13 12 11 9 3 10 9 9 11 12 11 11 11 12 12 12 13 13 12 14 14 14 15 14 15 16 17 12 11 12
11 11 13 13 11 11 8 1 10 11 9 9 9 10 11 10 12 13 13 11 13 13 13 13 14 13 15 17 17 13 11 6
Wind_Direction
258 204 194 173 166 165 162 167 172 169 167 160 149 156 179 170 185 185 187 175 163 149 138 145 158 152 165 161 151 142 149 149
224 155 162 153 158 161 163 163 177 170 174 172 178 177 155 185 194 184 188 176 169 161 151 149 158 182 173 159 148 144 129 141
192 145 177 171 166 164 163 170 179 177 180 178 150 134 129 122 174 196 189 188 173 171 165 167 176 176 172 165 160 137 118 161
186 175 197 169 172 171 169 174 178 177 168 129 107 91 87 124 181 201 216 186 169 173 173 176 178 175 176 174 164 164 157 140
198 184 191 187 181 167 165 174 176 174 160 164 168 175 145 130 139 141 187 225 187 178 177 183 176 175 167 178 170 169 159 161
194 194 194 196 174 168 164 169 173 165 160 173 161 148 145 136 128 146 162 186 196 183 174 176 173 170 180 162 166 146 163 147
210 199 166 176 181 165 167 170 169 165 171 176 165 155 149 148 154 158 153 136 174 170 176 167 170 160 172 159 136 139 136 134
196 174 173 174 178 178 173 170 171 174 176 171 167 161 161 161 164 165 153 144 146 168 163 167 162 161 163 164 130 129 156 143
203 185 178 178 180 179 176 175 169 176 177 173 172 164 168 162 173 169 169 159 143 130 144 159 155 146 136 121 129 156 143 185
228 182 177 175 178 181 177 174 172 176 181 168 174 168 165 162 166 166 157 136 142 141 147 146 145 147 128 112 129 184 170 188
280 181 177 176 172 172 173 177 174 175 181 171 175 177 168 163 168 175 160 148 144 145 144 158 157 161 172 172 199 210 186 188
275 175 174 184 173 169 171 175 174 178 184 173 173 178 172 163 172 167 173 161 156 166 169 161 164 168 181 189 200 217 209 204
264 186 156 167 183 171 174 173 177 184 186 178 175 173 172 175 175 177 169 175 170 173 176 178 174 178 187 195 205 216 215 214
356 171 170 164 172 185 176 175 181 182 188 182 177 177 177 180 180 178 180 181 181 178 175 182 188 192 194 203 211 222 227 224
353 347 164 162 164 179 188 180 180 183 185 187 183 186 186 185 180 183 188 188 185 187 186 187 187 194 202 210 214 220 225 227
2 5 82 136 152 170 191 170 175 182 194 193 195 186 189 190 190 185 187 192 195 192 197 199 198 198 198 201 208 212 211 216
11 10 29 37 137 159 155 172 182 179 185 195 199 193 194 195 197 198 192 194 198 194 201 203 207 212 211 203 204 212 206 206
15 7 14 15 17 17 174 178 174 188 199 195 195 193 195 200 200 204 204 198 198 204 204 208 213 214 206 205 207 219 219 224
17 16 14 6 7 18 17 334 180 188 205 204 202 197 202 207 208 208 207 209 207 208 209 210 218 222 207 208 207 218 224 227